Date,TemperatureHighF,TemperatureAvgF,TemperatureLowF,DewpointHighF,DewpointAvgF,DewpointLowF,HumidityHigh,HumidityAvg,HumidityLow,PressureMaxIn,PressureMinIn,WindSpeedMaxMPH,WindSpeedAvgMPH,GustSpeedMaxMPH,PrecipitationSumIn
2013-7-1,67,62,57,-100,-100,-100,0,0,100,0.00,40.00,14,8,22,0.00
2013-7-2,70,64,58,-100,-100,-100,0,0,100,0.00,40.00,9,6,14,0.00
2013-7-3,68,63,56,-100,-100,-100,0,0,100,0.00,40.00,15,6,16,0.00
2013-7-4,76,70,65,-100,-100,-100,0,0,100,0.00,40.00,18,7,22,0.00
2013-7-5,75,68,64,-100,-100,-100,0,0,100,0.00,40.00,20,10,23,0.00
2013-7-6,81,72,66,-100,-100,-100,0,0,100,0.00,40.00,23,9,24,0.00
2013-7-7,77,72,67,-100,-100,-100,0,0,100,0.00,40.00,21,7,23,0.00
2013-7-8,74,70,67,-100,-100,-100,0,0,100,0.00,40.00,15,5,17,0.00
2013-7-9,74,68,65,-100,-100,-100,0,0,100,0.00,40.00,15,6,17,0.00
2013-7-10,74,70,65,-100,-100,-100,0,0,100,0.00,40.00,23,13,30,0.00
2013-7-11,70,63,57,-100,-100,-100,0,0,100,0.00,40.00,13,8,20,0.00
2013-7-12,71,63,55,-100,-100,-100,0,0,100,0.00,40.00,13,6,14,0.00
2013-7-13,71,66,59,-100,-100,-100,0,0,100,0.00,40.00,18,9,22,0.00
2013-7-14,74,69,63,-100,-100,-100,0,0,100,0.00,40.00,15,7,17,0.00
2013-7-15,80,73,69,-100,-100,-100,0,0,100,0.00,40.00,12,4,13,0.00
2013-7-16,81,75,71,-100,-100,-100,0,0,100,0.00,40.00,18,4,20,0.00
2013-7-17,94,80,76,-100,-100,-100,0,0,100,0.00,40.00,15,8,22,0.00
2013-7-18,82,76,74,-100,-100,-100,0,0,100,0.00,40.00,15,6,17,0.00
2013-7-19,87,76,70,-100,-100,-100,0,0,100,0.00,40.00,21,12,32,0.00
2013-7-20,73,67,60,-100,-100,-100,0,0,100,0.00,40.00,15,10,22,0.00
2013-7-21,66,62,55,-100,-100,-100,0,0,100,0.00,40.00,15,11,17,0.00
2013-7-22,72,68,66,-100,-100,-100,0,0,100,0.00,40.00,27,16,31,0.00
2013-7-23,75,68,58,-100,-100,-100,0,0,100,0.00,40.00,21,14,32,0.00
2013-7-24,70,61,52,-100,-100,-100,0,0,100,0.00,40.00,12,8,18,0.00
2013-7-25,67,63,55,-100,-100,-100,0,0,100,0.00,40.00,25,13,29,0.00
2013-7-26,75,67,62,-100,-100,-100,0,0,100,0.00,40.00,25,13,29,0.00
2013-7-27,67,63,60,-100,-100,-100,0,0,100,0.00,40.00,18,7,28,0.00
2013-7-28,67,60,55,-100,-100,-100,0,0,100,0.00,40.00,14,8,20,0.00
2013-7-29,65,59,53,-100,-100,-100,0,0,100,0.00,40.00,14,8,20,0.00
2013-7-30,69,63,55,-100,-100,-100,0,0,100,0.00,40.00,14,8,15,0.00
2013-7-31,71,67,62,-100,-100,-100,0,0,100,0.00,40.00,20,9,24,0.00